Sigfox identifier Datetime Temperature Humidity SNR
00393802 2018-10-09 09:00:22 20.8 41 22.9
00393802 2018-10-09 07:56:16 20.8 41 23.1
00393802 2018-10-09 06:52:08 20.8 40 23.2
00393802 2018-10-09 05:48:02 20.8 40 23.4
00393802 2018-10-09 04:43:53 20.8 40 23.5
00393802 2018-10-09 01:31:28 20.8 38 23.8
00393802 2018-10-09 00:27:20 20.8 38 23.8
00393802 2018-10-08 23:23:12 20.8 38 24
00393802 2018-10-08 22:19:03 20.8 37 24.6
00393802 2018-10-08 21:14:54 20.8 37 24.6
00393802 2018-10-08 20:10:45 20.8 37 25
00393802 2018-10-08 19:06:38 20.8 37 25
00393802 2018-10-08 18:02:31 20.8 36 25
00393802 2018-10-08 16:58:19 20.8 36 25.1
00393802 2018-10-08 15:54:11 20.8 36 25.1
00393802 2018-10-08 14:50:06 20.6 36 25.3
00393802 2018-10-08 13:45:54 20.6 35 25.4
00393802 2018-10-08 12:41:47 20.6 35 25.8
00393802 2018-10-08 11:37:33 20.4 33 25.9
00393802 2018-10-08 10:33:28 20.2 33 26
00393802 2018-10-08 09:29:22 20.2 33 26.1
00393802 2018-10-08 08:25:16 20 34 26.1
00393802 2018-10-08 07:21:09 20.1 35 26
00393802 2018-10-08 06:17:00 20.2 35 25.9
00393802 2018-10-08 05:12:53 20.2 35 25.9
00393802 2018-10-08 04:08:43 20.2 36 26
00393802 2018-10-08 03:04:35 20.2 36 25.8
00393802 2018-10-08 02:00:28 20.2 37 25.7
00393802 2018-10-08 00:56:19 20.2 37 25.7
00393802 2018-10-07 23:52:09 20.2 37 25.7
00393802 2018-10-07 22:48:01 20.3 38 25.6
00393802 2018-10-07 21:43:53 20.4 38 25.7
00393802 2018-10-07 20:39:44 20.4 38 25.6
00393802 2018-10-07 19:35:36 20.4 38 25.4
00393802 2018-10-07 18:31:25 20.4 38 25.4
00393802 2018-10-07 17:27:17 20.4 38 25.1
00393802 2018-10-07 16:23:09 20.4 38 25.2
00393802 2018-10-07 15:19:02 20.4 38 25.2
00393802 2018-10-07 14:14:54 20.4 38 25.2
00393802 2018-10-07 13:10:44 20.4 38 25.4
00393802 2018-10-07 12:06:36 20.4 38 25.4
00393802 2018-10-07 11:02:27 20.4 39 25.6
00393802 2018-10-07 09:58:17 20.4 39 25.3
00393802 2018-10-07 08:54:09 20.4 39 25.2
00393802 2018-10-07 07:50:00 20.4 39 25
00393802 2018-10-07 06:45:51 20.4 39 24.9
00393802 2018-10-07 05:41:40 20.4 39 24.9
00393802 2018-10-07 04:37:31 20.4 39 25
00393802 2018-10-07 03:33:22 20.4 39 25.1
00393802 2018-10-07 02:29:14 20.5 40 25.1
00393802 2018-10-07 01:25:07 20.6 40 25.2
00393802 2018-10-07 00:20:59 20.6 40 25.4
00393802 2018-10-06 23:16:51 20.6 40 25.5
00393802 2018-10-06 22:12:42 20.6 40 25.5
00393802 2018-10-06 21:08:37 20.6 40 25.6
00393802 2018-10-06 20:04:31 20.6 39 25.6
00393802 2018-10-06 19:00:20 20.6 39 25.6
00393802 2018-10-06 17:56:12 20.6 40 25.5
00393802 2018-10-06 16:52:03 20.6 40 25.5
00393802 2018-10-06 15:47:53 20.6 40 25.5
00393802 2018-10-06 14:43:45 20.6 40 25.5
00393802 2018-10-06 13:39:37 20.6 40 25.3
00393802 2018-10-06 12:35:30 20.6 40 25
00393802 2018-10-06 11:31:23 20.6 40 24.9
00393802 2018-10-06 10:27:14 20.6 40 24.9
00393802 2018-10-06 09:23:07 20.6 40 24.7
00393802 2018-10-06 08:19:01 20.6 40 24.3
00393802 2018-10-06 07:14:54 20.8 40 24.2
00393802 2018-10-06 06:10:50 20.8 41 24.2
00393802 2018-10-06 05:06:40 20.8 41 24
00393802 2018-10-06 04:02:31 20.8 41 23.9
00393802 2018-10-06 02:58:26 20.8 41 23.9
00393802 2018-10-06 01:54:19 20.8 41 23.7
00393802 2018-10-06 00:50:12 20.9 42 23.4
00393802 2018-10-05 23:46:01 21 42 23.2
00393802 2018-10-05 22:41:50 21 42 22.8
00393802 2018-10-05 21:37:39 21.1 43 22.6
00393802 2018-10-05 20:33:31 21.2 43 22.5
00393802 2018-10-05 19:29:21 21.3 43 22
00393802 2018-10-05 18:25:12 21.3 43 21.7
00393802 2018-10-05 17:21:04 21.5 44 21.7
00393802 2018-10-05 16:16:55 21.5 44 21.3
00393802 2018-10-05 15:12:46 21.4 43 21
00393802 2018-10-05 14:08:37 21.3 43 20.1
00393802 2018-10-05 13:04:28 21.1 45 20.1
00393802 2018-10-05 12:00:18 21 43 20.5
00393802 2018-10-05 10:56:08 21 41 20.8
00393802 2018-10-05 09:52:01 20.8 37 21.1
00393802 2018-10-05 08:47:50 20.6 34 21.4
00393802 2018-10-05 07:43:38 20.4 31 21.1
00393802 2018-10-05 06:39:30 20.4 30 21.3
00393802 2018-10-05 05:35:21 20.4 30 21.3
00393802 2018-10-05 04:31:14 20.4 30 21
00393802 2018-10-05 03:27:07 20.5 30 20.9
00393802 2018-10-05 02:22:58 20.6 30 21
00393802 2018-10-05 01:18:50 20.6 30 21
00393802 2018-10-05 00:14:45 20.8 30 21.1
00393802 2018-10-04 23:10:36 21 30 20.9
00393802 2018-10-04 22:06:28 21 30 21
00393802 2018-10-04 21:02:19 21.1 29 21.3
00393802 2018-10-04 19:58:08 21.3 28 21.7
00393802 2018-10-04 18:54:01 21.5 27 21.7
00393802 2018-10-04 17:49:52 21.9 27 21.6
00393802 2018-10-04 16:45:43 22.5 29 21.6
00393802 2018-10-04 15:41:36 21.2 30 21.6
00393802 2018-10-04 14:37:24 20.8 31 22.2
00393802 2018-10-04 13:33:14 20.6 31 22.2
00393802 2018-10-04 12:29:04 20.6 32 22.2
00393802 2018-10-04 11:24:54 20.4 33 22.2
00393802 2018-10-04 10:20:45 20.4 34 22.3
00393802 2018-10-04 09:16:36 20.2 34 22
00393802 2018-10-04 08:12:26 20.1 35 21.8
00393802 2018-10-04 07:08:15 20.2 37 21.6
00393802 2018-10-04 06:04:02 20.2 37 21.5
00393802 2018-10-04 04:59:54 20.2 38 21.6
00393802 2018-10-04 03:55:41 20.2 38 21.5
00393802 2018-10-04 02:51:32 20.2 38 21.5
00393802 2018-10-04 01:47:21 20.4 39 21.6
00393802 2018-10-04 00:43:12 20.4 39 21.4
00393802 2018-10-03 23:39:00 20.4 40 21.2
00393802 2018-10-03 22:34:51 20.4 40 21.1
00393802 2018-10-03 21:30:40 20.5 40 20.8
00393802 2018-10-03 20:26:28 20.6 41 20.9
00393802 2018-10-03 19:22:18 20.6 41 20.8
00393802 2018-10-03 18:18:09 20.6 41 20.5
00393802 2018-10-03 17:13:58 20.6 43 20
00393802 2018-10-03 16:09:52 20.7 43 19.9
00393802 2018-10-03 15:05:42 20.6 43 20
00393802 2018-10-03 14:01:35 20.6 43 20.2
00393802 2018-10-03 12:57:22 20.6 42 20.3
00393802 2018-10-03 11:53:11 20.6 41 19
00393802 2018-10-03 10:49:00 20.4 41 19.1
00393802 2018-10-03 09:44:48 20.4 41 19.1
00393802 2018-10-03 08:40:37 20.2 39 19.3
00393802 2018-10-03 07:36:26 20.2 40 19.3
00393802 2018-10-03 06:32:15 20.2 40 19.5
00393802 2018-10-03 05:28:03 20.2 41 19.7
00393802 2018-10-03 04:23:52 20.2 41 19.9
00393802 2018-10-03 03:19:43 20.3 41 19.4
00393802 2018-10-03 02:15:32 20.4 41 19
00393802 2018-10-03 01:11:21 20.4 41 18.3
00393802 2018-10-03 00:07:08 20.4 41 18.5
00393802 2018-10-02 23:02:54 20.4 41 18.6
00393802 2018-10-02 21:58:40 20.5 41 19.1
00393802 2018-10-02 20:54:26 20.6 40 18.8
00393802 2018-10-02 19:50:14 20.6 40 17.6
00393802 2018-10-02 18:45:58 20.6 40 18.5
00393802 2018-10-02 17:41:43 20.8 41 13.5
00393802 2018-10-02 16:37:28 20.8 41 13.5
00393802 2018-10-02 15:33:12 20.8 41 13
00393802 2018-10-02 14:28:56 20.2 50 0